• In Czech Republic
  • List of Countries
  • For 7 days
  • Water Temperature
  • Satellite Maps
  • Weather Map
  • Weather Widgets
  • user-avatar
    Login

    Hourly Weather Chelva

    Today, 18 October, Thursday

    Time Temperature Precipitation Wind Pressure Humidity
    00:00 +1°C° 0 mm 5 mps 749 mmHg 79%
    01:00 +1°C° 0 mm 5 mps 749 mmHg 80%
    02:00 +1°C° 0 mm 5 mps 749 mmHg 81%
    03:00 +1°C° 0 mm 5 mps 750 mmHg 81%
    04:00 +2°C° 0 mm 3 mps 750 mmHg 84%
    05:00 +1°C° 0 mm 3 mps 750 mmHg 85%
    06:00 0°C° 0 mm 4 mps 750 mmHg 85%
    07:00 0°C° 0 mm 4 mps 750 mmHg 86%
    08:00 +1°C° 0 mm 4 mps 750 mmHg 84%
    09:00 +1°C° 0 mm 4 mps 751 mmHg 83%
    10:00 +2°C° 0 mm 3 mps 751 mmHg 81%
    11:00 +3°C° 0 mm 3 mps 751 mmHg 79%
    12:00 +3°C° 0 mm 3 mps 751 mmHg 78%
    13:00 +3°C° 0 mm 3 mps 751 mmHg 76%
    14:00 +4°C° 0 mm 2 mps 751 mmHg 77%
    15:00 +4°C° 0 mm 2 mps 751 mmHg 77%
    16:00 +5°C° 0 mm 1 mps 750 mmHg 78%
    17:00 +5°C° 0 mm 1 mps 750 mmHg 81%
    18:00 +4°C° 0 mm 1 mps 749 mmHg 83%
    19:00 +4°C° 0 mm 1 mps 749 mmHg 86%
    20:00 +3°C° 0.1 mm 2 mps 748 mmHg 86%
    21:00 +3°C° 0.1 mm 2 mps 748 mmHg 87%
    22:00 +3°C° 0.1 mm 2 mps 747 mmHg 87%
    23:00 +2°C° 0.2 mm 3 mps 746 mmHg 89%

    Tomorrow, 19 October, Friday

    Time Temperature Precipitation Wind Pressure Humidity
    00:00 +3°C° 0.2 mm 3 mps 746 mmHg 91%
    01:00 +3°C° 0.2 mm 3 mps 745 mmHg 92%
    02:00 +3°C° 0.1 mm 3 mps 745 mmHg 93%
    03:00 +5°C° 0.1 mm 2 mps 744 mmHg 95%
    04:00 +5°C° 0.1 mm 2 mps 744 mmHg 96%
    05:00 +5°C° 0.1 mm 2 mps 744 mmHg 96%
    06:00 +6°C° 0.1 mm 2 mps 744 mmHg 97%
    07:00 +6°C° 0.1 mm 2 mps 744 mmHg 97%
    08:00 +7°C° 0.1 mm 2 mps 744 mmHg 96%
    09:00 +7°C° 0.1 mm 2 mps 744 mmHg 96%
    10:00 +8°C° 0.1 mm 2 mps 744 mmHg 95%
    11:00 +8°C° 0 mm 2 mps 743 mmHg 94%
    12:00 +8°C° 0 mm 3 mps 743 mmHg 93%
    13:00 +8°C° 0 mm 3 mps 743 mmHg 92%
    14:00 +8°C° 0 mm 3 mps 743 mmHg 92%
    15:00 +8°C° 0 mm 3 mps 742 mmHg 91%
    16:00 +7°C° 0 mm 4 mps 742 mmHg 91%
    17:00 +7°C° 0 mm 4 mps 742 mmHg 90%
    18:00 +7°C° 0 mm 4 mps 742 mmHg 90%
    19:00 +7°C° 0 mm 4 mps 741 mmHg 89%
    20:00 +7°C° 0.3 mm 4 mps 741 mmHg 90%
    21:00 +7°C° 0.3 mm 4 mps 741 mmHg 90%
    22:00 +7°C° 0.3 mm 4 mps 741 mmHg 91%
    23:00 +7°C° 0.2 mm 4 mps 741 mmHg 91%

    Day after tomorrow, 20 October, Saturday

    Time Temperature Precipitation Wind Pressure Humidity
    00:00 +8°C° 0.2 mm 3 mps 740 mmHg 90%
    01:00 +8°C° 0.2 mm 3 mps 740 mmHg 90%
    02:00 +7°C° 0 mm 3 mps 740 mmHg 90%
    03:00 +7°C° 0 mm 3 mps 741 mmHg 91%
    04:00 +5°C° 0 mm 3 mps 741 mmHg 91%
    05:00 +4°C° 0 mm 4 mps 741 mmHg 89%
    06:00 +4°C° 0 mm 4 mps 741 mmHg 87%
    07:00 +4°C° 0 mm 4 mps 741 mmHg 84%
    08:00 +4°C° 0 mm 4 mps 742 mmHg 83%
    09:00 +4°C° 0 mm 4 mps 742 mmHg 82%
    10:00 +4°C° 0 mm 4 mps 742 mmHg 81%
    11:00 +4°C° 0 mm 4 mps 742 mmHg 79%
    12:00 +5°C° 0 mm 4 mps 742 mmHg 77%
    13:00 +5°C° 0 mm 4 mps 742 mmHg 74%
    14:00 +5°C° 0 mm 3 mps 742 mmHg 75%
    15:00 +5°C° 0 mm 3 mps 743 mmHg 76%
    16:00 +5°C° 0 mm 3 mps 743 mmHg 77%
    17:00 +4°C° 0.1 mm 3 mps 743 mmHg 80%
    18:00 +5°C° 0.1 mm 2 mps 743 mmHg 83%
    19:00 +5°C° 0.1 mm 2 mps 743 mmHg 85%
    20:00 +4°C° 0 mm 2 mps 744 mmHg 86%
    21:00 +4°C° 0 mm 2 mps 744 mmHg 86%
    22:00 +4°C° 0 mm 2 mps 744 mmHg 86%
    23:00 +3°C° 0 mm 2 mps 744 mmHg 87%

    21 October, Sunday

    Time Temperature Precipitation Wind Pressure Humidity
    00:00 +2°C° 0 mm 3 mps 745 mmHg 88%
    01:00 +2°C° 0 mm 3 mps 745 mmHg 88%
    02:00 +1°C° 0 mm 3 mps 746 mmHg 87%
    03:00 +1°C° 0 mm 3 mps 746 mmHg 86%
    04:00 0°C° 0 mm 3 mps 747 mmHg 85%
    05:00 0°C° 0 mm 3 mps 747 mmHg 82%
    06:00 0°C° 0 mm 3 mps 748 mmHg 80%
    07:00 0°C° 0 mm 3 mps 748 mmHg 77%
    08:00 0°C° 0 mm 3 mps 749 mmHg 76%
    09:00 0°C° 0 mm 3 mps 750 mmHg 75%
    10:00 0°C° 0 mm 3 mps 750 mmHg 74%
    11:00 +1°C° 0 mm 3 mps 751 mmHg 72%
    12:00 +1°C° 0 mm 3 mps 751 mmHg 71%
    13:00 +1°C° 0 mm 3 mps 751 mmHg 69%
    14:00 +1°C° 0 mm 3 mps 752 mmHg 70%
    15:00 +1°C° 0 mm 3 mps 752 mmHg 71%
    16:00 0°C° 0 mm 3 mps 753 mmHg 72%
    17:00 0°C° 0 mm 3 mps 753 mmHg 74%
    18:00 0°C° 0 mm 3 mps 754 mmHg 77%
    19:00 -1°C° 0 mm 2 mps 754 mmHg 80%
    20:00 -1°C° 0 mm 2 mps 754 mmHg 82%
    21:00 -2°C° 0 mm 2 mps 755 mmHg 85%
    22:00 -2°C° 0 mm 2 mps 755 mmHg 87%
    23:00 -2°C° 0 mm 2 mps 755 mmHg 86%

    22 October, Monday

    Time Temperature Precipitation Wind Pressure Humidity
    00:00 -2°C° 0 mm 2 mps 755 mmHg 85%
    01:00 -2°C° 0 mm 2 mps 756 mmHg 83%
    02:00 -2°C° 0 mm 2 mps 756 mmHg 81%
    03:00 -2°C° 0 mm 2 mps 756 mmHg 79%
    04:00 -2°C° 0 mm 2 mps 757 mmHg 77%
    05:00 -2°C° 0 mm 2 mps 757 mmHg 79%
    06:00 0°C° 0 mm 1 mps 757 mmHg 80%
    07:00 0°C° 0 mm 1 mps 757 mmHg 82%
    08:00 0°C° 0 mm 1 mps 757 mmHg 78%
    09:00 +1°C° 0 mm 1 mps 757 mmHg 75%
    10:00 +1°C° 0 mm 1 mps 757 mmHg 71%
    11:00 +2°C° 0 mm 1 mps 757 mmHg 69%
    12:00 +2°C° 0 mm 1 mps 757 mmHg 66%
    13:00 +3°C° 0 mm 1 mps 757 mmHg 64%
    14:00 +3°C° 0 mm 1 mps 757 mmHg 67%
    15:00 +2°C° 0 mm 1 mps 757 mmHg 71%
    16:00 +2°C° 0 mm 1 mps 757 mmHg 75%
    17:00 +1°C° 0 mm 1 mps 757 mmHg 77%
    18:00 +1°C° 0 mm 1 mps 756 mmHg 80%
    19:00 0°C° 0 mm 1 mps 756 mmHg 83%
    20:00 -2°C° 0 mm 2 mps 756 mmHg 83%
    21:00 -1°C° 0 mm 2 mps 756 mmHg 83%
    22:00 -1°C° 0 mm 2 mps 755 mmHg 83%
    23:00 -1°C° 0 mm 2 mps 755 mmHg 85%

    23 October, Tuesday

    Time Temperature Precipitation Wind Pressure Humidity
    00:00 -1°C° 0 mm 2 mps 755 mmHg 87%
    01:00 -1°C° 0 mm 3 mps 755 mmHg 89%
    02:00 -1°C° 0 mm 3 mps 754 mmHg 89%
    03:00 -1°C° 0 mm 3 mps 754 mmHg 89%
    04:00 -1°C° 0 mm 3 mps 754 mmHg 89%
    05:00 -1°C° 0 mm 3 mps 754 mmHg 87%
    06:00 -1°C° 0 mm 3 mps 753 mmHg 86%
    07:00 -1°C° 0 mm 3 mps 753 mmHg 85%
    08:00 -2°C° 0 mm 4 mps 753 mmHg 80%
    09:00 -1°C° 0 mm 4 mps 753 mmHg 76%
    10:00 0°C° 0 mm 4 mps 753 mmHg 72%
    11:00 +1°C° 0 mm 4 mps 753 mmHg 70%
    12:00 +1°C° 0 mm 4 mps 752 mmHg 68%
    13:00 +3°C° 0 mm 4 mps 752 mmHg 65%
    14:00 +3°C° 0 mm 4 mps 752 mmHg 69%
    15:00 +2°C° 0 mm 3 mps 752 mmHg 72%
    16:00 +2°C° 0 mm 3 mps 752 mmHg 75%
    17:00 +1°C° 0 mm 3 mps 751 mmHg 78%
    18:00 +1°C° 0 mm 3 mps 751 mmHg 82%
    19:00 0°C° 0 mm 3 mps 751 mmHg 85%
    20:00 0°C° 0 mm 3 mps 751 mmHg 86%
    21:00 0°C° 0 mm 3 mps 751 mmHg 88%
    22:00 0°C° 0 mm 3 mps 751 mmHg 89%
    23:00 0°C° 0 mm 3 mps 750 mmHg 88%
    Show more